Location: Hohenfelde
(53.8441°N, 9.6220°E)
Time: 12:32:53
(UTC+00:00)

NOSS 7 (D) - Pass Details

Date: 14 July 2020
Orbit: 307 x 618 km, 63.3° (Epoch: 12 August)

Event Time Altitude Azimuth Distance (km) Brightness Sun altitude
Rises 00:24:56 0° 312° (NW) 2,057 11.2 -13.5°
Reaches altitude 10° 00:26:51 10° 316° (NW) 1,244 10.1 -13.4°
Maximum altitude 00:29:32 61° 39° (NE) 388 7.3 -13.3°
Drops below altitude 10° 00:32:25 10° 121° (ESE) 1,337 9.6 -13.2°
Enters shadow 00:34:54 -1° 125° (SE) 2,396 10.9 -13.1°
